FW9690 Weather Reports


time (UTC)temp
C
wind
direction
speed
KPH
gust
KPH
rain 1hr
cm
rain 24hr
cm
rain mn
cm
humidity
%
barometer
mb
20210723164736 25 195 0.0 0.0 0.00 0.00 0.00 71 995.1
20210723163139 24 198 0.0 0.0 0.00 0.00 0.00 71 995.4
20210723160125 23 192 0.0 0.0 0.00 0.00 0.00 78 995.3
20210723154624 23 189 0.0 0.0 0.00 0.00 0.00 81 995.3
20210723153143 22 163 0.0 0.0 0.00 0.00 0.00 83 995.3
20210723150050 21 195 0.0 0.0 0.00 0.00 0.00 86 995.4
20210723144619 21 171 0.0 0.0 0.00 0.00 0.00 86 995.5
20210723143117 21 169 0.0 0.0 0.00 0.00 0.00 87 995.3
20210723140156 21 155 0.0 0.0 0.00 0.00 0.00 87 995.1
20210723134748 21 144 0.0 0.0 0.00 0.00 0.00 87 995.1
20210723133141 21 110 0.0 0.0 0.00 0.00 0.00 86 995.3
20210723130110 20 89 0.0 0.0 0.00 0.00 0.00 85 995.4
20210723124616 21 98 0.0 0.0 0.00 0.00 0.00 83 994.4
20210723123105 21 291 0.0 0.0 0.00 0.00 0.00 79 994.1
20210723120231 22 270 0.0 0.0 0.00 0.00 0.00 72 993.9
20210723114725 21 69 0.0 0.0 0.00 0.00 0.00 79 994.0
20210723113202 21 96 0.0 0.0 0.00 0.00 0.00 83 993.9
20210723110121 21 163 0.0 0.0 0.00 0.00 0.00 83 994.0
20210723103109 21 190 0.0 0.0 0.00 0.00 0.00 83 994.2
20210723100148 21 130 0.0 0.0 0.00 0.00 0.00 77 995.0
20210723094548 22 99 0.0 0.0 0.00 0.00 0.00 77 995.0
20210723093208 22 144 0.0 0.0 0.00 0.00 0.00 77 994.5
20210723090110 21 143 0.0 0.0 0.00 0.00 0.00 78 993.7
20210723084625 21 161 0.0 0.0 0.00 0.00 0.00 79 993.7
20210723083100 22 159 0.0 0.0 0.00 0.00 0.00 78 993.9
20210723080048 22 159 0.0 0.0 0.00 0.00 0.00 70 994.0
20210723074538 22 152 0.0 0.0 0.00 0.00 0.00 69 994.2
20210723073040 23 157 0.0 0.0 0.00 0.00 0.00 68 994.2
20210723070036 23 163 0.0 0.0 0.00 0.00 0.00 64 994.5
20210723064539 24 169 0.0 0.0 0.00 0.00 0.00 63 994.6
20210723063014 24 156 0.0 0.0 0.00 0.00 0.00 61 994.7
20210723060011 25 173 0.0 0.0 0.00 0.00 0.00 57 994.8
20210723054515 25 165 0.0 0.0 0.00 0.00 0.00 54 994.8
20210723053023 25 164 0.0 0.0 0.00 0.00 0.00 48 994.9
20210723051503 25 164 0.0 0.0 0.00 0.00 0.00 44 994.8
20210723050009 26 144 0.0 0.0 0.00 0.00 0.00 40 994.8
20210723043243 25 140 0.0 0.0 0.00 0.00 0.00 39 994.9
20210723041648 26 130 0.0 0.0 0.00 0.00 0.00 38 995.0
20210723040112 26 133 0.0 0.0 0.00 0.00 0.00 37 994.9
20210723033249 26 128 0.0 0.0 0.00 0.00 0.00 38 994.6
20210723031708 26 123 0.0 0.0 0.00 0.00 0.00 38 994.5
20210723030227 27 121 0.0 0.0 0.00 0.00 0.00 39 994.4
20210723023156 27 125 0.0 0.0 0.00 0.00 0.00 39 994.1
20210723021804 27 120 0.0 0.0 0.00 0.00 0.00 39 994.0
20210723020113 27 123 0.0 0.0 0.00 0.00 0.00 38 994.1
20210723013207 28 125 0.0 0.0 0.00 0.00 0.00 36 993.8
20210723011758 29 135 0.0 0.0 0.00 0.00 0.00 35 993.7
20210723010241 29 130 0.0 0.0 0.00 0.00 0.00 35 993.6
20210723003222 30 126 0.0 0.0 0.00 0.00 0.00 34 993.5
20210723001759 30 135 0.0 0.0 0.00 0.00 0.00 34 993.6
20210723000127 30 127 0.0 0.0 0.00 0.00 0.00 34 993.6
20210722233121 30 134 0.0 0.0 0.00 0.00 0.00 35 993.9
20210722231644 30 161 0.0 0.0 0.00 0.00 0.00 33 994.1
20210722230122 30 177 0.0 0.0 0.00 0.00 0.00 33 994.2
20210722223108 30 192 0.0 0.0 0.00 0.00 0.00 33 994.8
20210722221621 30 192 0.0 0.0 0.00 0.00 0.00 33 994.9
20210722220050 30 191 0.0 0.0 0.00 0.00 0.00 34 995.1
20210722213124 30 173 0.0 0.0 0.00 0.00 0.00 34 995.3
20210722211618 29 158 0.0 0.0 0.00 0.00 0.00 34 995.6
20210722210059 30 161 0.0 0.0 0.00 0.00 0.00 34 995.8
20210722203157 30 202 0.0 0.0 0.00 0.00 0.00 33 996.0
20210722201722 30 150 0.0 0.0 0.00 0.00 0.00 35 996.0
20210722200238 30 192 0.0 0.0 0.00 0.00 0.00 35 996.2
20210722193059 29 167 0.0 0.0 0.00 0.00 0.00 34 996.6
20210722191626 28 192 0.0 0.0 0.00 0.00 0.00 35 996.6
20210722190048 28 161 0.0 0.0 0.00 0.00 0.00 35 996.7
20210722183110 28 171 0.0 0.0 0.00 0.00 0.00 37 997.1
20210722181553 28 194 0.0 0.0 0.00 0.00 0.00 38 997.2
20210722180029 28 163 0.0 0.0 0.00 0.00 0.00 39 997.3
20210722173031 28 151 0.0 0.0 0.00 0.00 0.00 43 997.6
20210722171537 27 178 0.0 0.0 0.00 0.00 0.00 45 997.6
20210722170022 27 146 0.0 0.0 0.00 0.00 0.00 47 997.7